Tracking 19176 objects as of 26-May-2018
HD Live streaming from Space Station
objects crossing your sky now

SL-16 R/B

Track SL-16 R/B now!
10-day predictions
SL-16 R/B is classified as:


NORAD ID: 19650
Int'l Code: 1988-102B
Perigee: 837.0 km
Apogee: 856.7 km
Inclination: 71.0 °
Period: 101.7 minutes
Semi major axis: 7217 km
RCS: 12.1863 m2 (large)
Launch date: November 23, 1988
Source: Commonwealth of Independent States (former USSR) (CIS)
Launch site: TYURATAM MISSILE AND SPACE COMPLEX (TTMTR)

Note: This is a ROCKET BODY
aabbcc
Your satellite tracking list
Your tracking list is empty




NASA's NSSDC Master Catalog

Two Line Element Set (TLE):
1 19650U 88102B   18145.61173254 +.00000132 +00000-0 +91404-4 0  9996
2 19650 071.0003 015.0678 0013594 013.6474 346.5014 14.15768190524183
Source of the keplerian elements: AFSPC